Overview Statistics Trail Chart Weather Telemetry Raw packets
 

This is the latest recevied weather packets stored in our database for station/object K7SKM. If no packets are shown the sender has not sent any weather packets the latest 10 day(s).

<< 87 88 89 90 91 92 93 >>
Time Temp. Humidity Pressure Rain* Wind** Luminosity Snow
1788037891 20° C 61% 1022.7 hPa 0 mm - 120 W/m² -
1788037586 19.44° C 61% 1022.6 hPa 0 mm - 158 W/m² -
1788037281 19.44° C 62% 1022.7 hPa 0 mm - 165 W/m² -
1788036980 18.89° C 64% 1022.7 hPa 0 mm - 355 W/m² -
1788036677 18.89° C 65% 1022.8 hPa 0 mm - 106 W/m² -
1788036373 18.89° C 65% 1022.7 hPa 0 mm - 98 W/m² -
1788036067 18.89° C 64% 1022.4 hPa 0 mm - 84 W/m² -
1788035767 18.89° C 64% 1022.5 hPa 0 mm - 113 W/m² -
1788035462 18.89° C 64% 1022.5 hPa 0 mm - 122 W/m² -
1788035157 18.33° C 66% 1022.5 hPa 0 mm - 104 W/m² -
1788034853 17.78° C 65% 1022.4 hPa 0 mm - 96 W/m² -
1788034550 18.33° C 66% 1022.5 hPa 0 mm - 80 W/m² -
1788034245 18.33° C 65% 1022.4 hPa 0 mm - 60 W/m² -
1788033944 18.33° C 65% 1022.5 hPa 0 mm - 73 W/m² -
1788033640 17.78° C 65% 1022.4 hPa 0 mm - 79 W/m² -
1788033339 17.78° C 65% 1022.6 hPa 0 mm - 79 W/m² -
1788033035 18.33° C 65% 1022.4 hPa 0 mm - 76 W/m² -
1788032734 19.44° C 61% 1022.3 hPa 0 mm - 62 W/m² -
1788032429 19.44° C 62% 1022.3 hPa 0 mm - 92 W/m² -
1788032125 19.44° C 62% 1022.3 hPa 0 mm - 132 W/m² -
1788031822 20° C 60% 1022 hPa 0 mm - 146 W/m² -
1788031515 19.44° C 59% 1022.3 hPa 0 mm - 522 W/m² -
1788031209 18.89° C 64% 1022.3 hPa 0 mm - 525 W/m² -
1788030903 18.33° C 66% 1022.1 hPa 0 mm - 163 W/m² -
1788030602 18.33° C 64% 1022.1 hPa 0 mm - 100 W/m² -

* Rain latest hour (hover to see other rain measurements)
** Current wind speed in m/s (hover to see current wind gust speed)